TimeEDT,TemperatureF,Dew PointF,Humidity,Sea Level PressureIn,VisibilityMPH,Wind Direction,Wind SpeedMPH,Gust SpeedMPH,PrecipitationIn,Events,Conditions,WindDirDegrees,DateUTC
12:56 AM,66.0,64.0,93,29.93,10.0,Calm,Calm,-,N/A,,Mostly Cloudy,0,2012-08-01 04:56:00
1:56 AM,66.9,64.9,93,29.91,9.0,Calm,Calm,-,N/A,,Scattered Clouds,0,2012-08-01 05:56:00
2:56 AM,66.9,64.9,93,29.90,7.0,Calm,Calm,-,N/A,,Mostly Cloudy,0,2012-08-01 06:56:00
3:56 AM,66.9,66.0,97,29.89,7.0,Calm,Calm,-,N/A,,Mostly Cloudy,0,2012-08-01 07:56:00
4:56 AM,68.0,66.0,93,29.88,7.0,Calm,Calm,-,N/A,,Mostly Cloudy,0,2012-08-01 08:56:00
5:04 AM,66.2,64.4,94,29.90,6.0,Calm,Calm,-,N/A,,Scattered Clouds,0,2012-08-01 09:04:00
5:56 AM,66.0,64.9,96,29.89,10.0,Calm,Calm,-,N/A,,Mostly Cloudy,0,2012-08-01 09:56:00
6:04 AM,66.2,64.4,94,29.90,10.0,Calm,Calm,-,N/A,,Mostly Cloudy,0,2012-08-01 10:04:00
6:56 AM,70.0,66.9,90,29.89,10.0,Calm,Calm,-,N/A,,Mostly Cloudy,0,2012-08-01 10:56:00
7:56 AM,71.6,68.0,88,29.92,10.0,Calm,Calm,-,N/A,,Mostly Cloudy,0,2012-08-01 11:56:00
8:56 AM,69.8,66.2,88,29.91,7.0,West,3.5,-,N/A,,Mostly Cloudy,270,2012-08-01 12:56:00
9:56 AM,73.9,70.0,87,29.90,10.0,South,4.6,-,N/A,,Mostly Cloudy,170,2012-08-01 13:56:00
10:56 AM,75.0,70.0,84,29.89,10.0,NNW,5.8,-,N/A,,Mostly Cloudy,340,2012-08-01 14:56:00
11:56 AM,79.0,69.1,72,29.87,10.0,Variable,5.8,-,N/A,,Mostly Cloudy,0,2012-08-01 15:56:00
12:56 PM,77.0,70.0,79,29.87,10.0,South,9.2,-,N/A,,Mostly Cloudy,180,2012-08-01 16:56:00
1:56 PM,75.2,68.0,78,29.88,10.0,South,3.5,-,N/A,,Mostly Cloudy,180,2012-08-01 17:56:00
2:56 PM,75.0,69.1,82,29.86,10.0,South,9.2,-,0.00,Rain,Light Rain,190,2012-08-01 18:56:00
3:56 PM,73.0,68.0,84,29.86,9.0,SW,4.6,-,0.00,Rain,Light Rain,220,2012-08-01 19:56:00
4:56 PM,73.0,68.0,84,29.86,9.0,Calm,Calm,-,0.01,Rain,Light Rain,0,2012-08-01 20:56:00
5:37 PM,73.4,69.8,88,29.87,10.0,Calm,Calm,-,0.00,,Overcast,0,2012-08-01 21:37:00
5:56 PM,73.9,70.0,87,29.86,9.0,Calm,Calm,-,0.00,,Mostly Cloudy,0,2012-08-01 21:56:00
6:56 PM,73.9,71.1,91,29.84,6.0,Calm,Calm,-,0.00,Rain,Light Rain,0,2012-08-01 22:56:00
7:56 PM,73.0,71.1,93,29.85,7.0,Calm,Calm,-,0.00,,Mostly Cloudy,0,2012-08-01 23:56:00
8:56 PM,72.0,70.0,93,29.86,8.0,Calm,Calm,-,0.00,,Mostly Cloudy,0,2012-08-02 00:56:00
9:56 PM,72.0,70.0,93,29.85,7.0,Calm,Calm,-,N/A,,Mostly Cloudy,0,2012-08-02 01:56:00
10:56 PM,71.1,69.1,93,29.85,6.0,West,3.5,-,N/A,,Mostly Cloudy,280,2012-08-02 02:56:00
11:56 PM,72.0,70.0,93,29.85,4.0,NW,3.5,-,N/A,,Mostly Cloudy,320,2012-08-02 03:56:00